Location: Zagreb
(45.8000°N, 16.0000°E)
Time: 11:36:49
(UTC+01:00)

Vanguard 1 Rocket - Pass Details

Date: 08 October 2020
Orbit: 656 x 4221 km, 34.3° (Epoch: 28 October)

Event Time Altitude Azimuth Distance (km) Brightness Sun altitude
Rises 18:27:26 0° 255° (WSW) 4,429 13.5 -1.7°
Reaches altitude 10° 18:29:54 10° 250° (WSW) 3,770 12.3 -2.1°
Maximum altitude 18:39:53 52° 177° (S) 2,836 9.9 -3.9°
Drops below altitude 10° 18:58:40 10° 110° (ESE) 6,756 11.2 -7.1°
Enters shadow 19:02:16 - 108° (ESE) 7,556 11.5 -7.8°
Sets 19:05:00 0° 107° (ESE) 8,142 - -8.2°
